Broomfield, CO

9:00 PM MST on November 17, 2017 (GMT -0700)
Jeffco

Weather History for KBJC - April, 2014

Change the Weather History Date:

Friday, April 11, 2014

  Actual Average Record
Temperature  
Mean Temperature 58 °F -  
Max Temperature 75 °F 56 °F 78 °F (1998)
Min Temperature 42 °F 34 °F 10 °F (1997)
Degree Days  
Heating Degree Days 6    
Growing Degree Days 8 (Base 50)    
Moisture  
Dew Point 26 °F    
Average Humidity 37    
Maximum Humidity 61    
Minimum Humidity 12    
Precipitation  
Precipitation 0.00 in - - ()
Sea Level Pressure  
Sea Level Pressure 29.99 in    
Wind  
Wind Speed 6 mph (West)    
Max Wind Speed 14 mph    
Max Gust Speed 9 mph    
Visibility 10 miles    
Events      
Averages and records for this station are not official NWS values.
T = Trace of Precipitation, MM = Missing Value Source: NWS Daily Summary

Daily Weather History Graph

Daily Weather History Graph

Search for Another Location

Airport or City:

Trip Planner

Search our weather history database for the weather conditions in past years. The results will help you decide how hot, cold, wet, or windy it might be!

Date:

Astronomy

Apr. 11, 2014 Rise Set
Actual Time 6:28 AM MDT 7:34 PM MDT
Civil Twilight 6:00 AM MDT 8:02 PM MDT
Nautical Twilight 5:27 AM MDT 8:35 PM MDT
Astronomical Twilight 4:53 AM MDT 9:10 PM MDT
Moon 4:18 PM MDT (4/11) 4:25 AM MDT (4/11)
Length of Visible Light 14h 01m
Length of Day
13h 06m
Waxing Gibbous, 87% of the Moon is Illuminated
Apr 11
Waxing Gibbous
Apr 15
Full
Apr 22
Last Quarter
Apr 29
New
May 6
First Quarter

Hourly Weather History & Observations

Time (MDT) Temp. Windchill Dew Point Humidity Pressure Visibility Wind Dir Wind Speed Gust Speed Precip Events Conditions
12:15 AM 50.0 °F - 30.2 °F 47% 30.04 in 10.0 mi WSW 6.9 mph - N/A   Clear
12:35 AM 46.4 °F 45.2 °F 30.2 °F 53% 30.04 in 10.0 mi West 3.5 mph - N/A   Clear
12:55 AM 46.4 °F 41.5 °F 30.2 °F 53% 30.05 in 10.0 mi West 10.4 mph - N/A   Clear
1:15 AM 50.0 °F - 28.4 °F 43% 30.04 in 10.0 mi West 8.1 mph - N/A   Clear
1:35 AM 46.4 °F 44.3 °F 30.2 °F 53% 30.05 in 10.0 mi WSW 4.6 mph - N/A   Clear
1:55 AM 50.0 °F - 30.2 °F 47% 30.05 in 10.0 mi West 5.8 mph - N/A   Clear
2:15 AM 50.0 °F - 30.2 °F 47% 30.04 in 10.0 mi WNW 5.8 mph - N/A   Clear
2:35 AM 51.8 °F - 28.4 °F 41% 30.04 in 10.0 mi WNW 4.6 mph - N/A   Clear
2:55 AM 51.8 °F - 28.4 °F 41% 30.04 in 10.0 mi NW 5.8 mph - N/A   Clear
3:15 AM 46.4 °F - 30.2 °F 53% 30.04 in 10.0 mi Calm Calm - N/A   Clear
3:35 AM 48.2 °F - 28.4 °F 46% 30.04 in 10.0 mi ENE 4.6 mph - N/A   Clear
3:55 AM 51.8 °F - 28.4 °F 41% 30.05 in 10.0 mi NE 3.5 mph - N/A   Clear
4:15 AM 50.0 °F - 28.4 °F 43% 30.05 in 10.0 mi NE 8.1 mph - N/A   Clear
4:35 AM 46.4 °F 41.9 °F 28.4 °F 50% 30.05 in 10.0 mi NE 9.2 mph - N/A   Clear
4:55 AM 46.4 °F 42.4 °F 28.4 °F 50% 30.05 in 10.0 mi NE 8.1 mph - N/A   Clear
5:14 AM 44.6 °F 43.1 °F 30.2 °F 57% 30.06 in 10.0 mi ENE 3.5 mph - N/A   Clear
5:35 AM 42.8 °F 41.1 °F 30.2 °F 61% 30.06 in 10.0 mi West 3.5 mph - N/A   Clear
5:46 AM 44.6 °F 42.2 °F 28.4 °F 53% 30.06 in 20.0 mi WSW 4.6 mph - N/A   Scattered Clouds
5:55 AM 42.8 °F 41.1 °F 30.2 °F 61% 30.06 in 10.0 mi West 3.5 mph - N/A   Clear
6:50 AM 44.6 °F 39.7 °F 30.2 °F 57% 30.08 in 40.0 mi West 9.2 mph - N/A   Partly Cloudy
7:53 AM 53.6 °F - 30.2 °F 41% 30.08 in 70.0 mi Variable 3.5 mph - N/A   Partly Cloudy
8:47 AM 57.2 °F - 32.0 °F 38% 30.07 in 70.0 mi Variable 4.6 mph - N/A   Partly Cloudy
9:53 AM 60.8 °F - 26.6 °F 27% 30.06 in 70.0 mi SE 10.4 mph - N/A   Scattered Clouds
10:46 AM 62.6 °F - 26.6 °F 26% 30.06 in 70.0 mi SSE 12.7 mph - N/A   Partly Cloudy
11:53 AM 66.2 °F - 26.6 °F 23% 30.01 in 70.0 mi SE 9.2 mph - N/A   Scattered Clouds
12:53 PM 68.0 °F - 21.2 °F 17% 29.97 in 70.0 mi ESE 5.8 mph - N/A   Scattered Clouds
1:59 PM 71.6 °F - 24.8 °F 17% 29.94 in 70.0 mi SSE 5.8 mph - N/A   Partly Cloudy
2:46 PM 71.6 °F - 21.2 °F 15% 29.91 in 70.0 mi Calm Calm - N/A   Scattered Clouds
3:47 PM 75.2 °F - 24.8 °F 15% 29.88 in 60.0 mi SSW 5.8 mph - N/A   Scattered Clouds
5:50 PM 75.2 °F - 19.4 °F 12% 29.84 in 60.0 mi West 12.7 mph - N/A   Partly Cloudy
6:50 PM 71.6 °F - 19.4 °F 14% 29.85 in 60.0 mi West 13.8 mph - N/A   Scattered Clouds
7:45 PM 64.4 °F - 17.6 °F 16% 29.86 in 60.0 mi West 10.4 mph - N/A   Partly Cloudy
8:47 PM 60.8 °F - 17.6 °F 19% 29.86 in 30.0 mi West 9.2 mph - N/A   Partly Cloudy
9:47 PM 64.4 °F - 15.8 °F 15% 29.86 in 30.0 mi NW 5.8 mph - N/A   Partly Cloudy
11:14 PM 55.4 °F - 19.4 °F 25% 29.84 in 10.0 mi West 5.8 mph 9.2 mph N/A   Clear
11:35 PM 55.4 °F - 19.4 °F 25% 29.84 in 10.0 mi WSW 6.9 mph - N/A   Clear
11:55 PM 55.4 °F - 21.2 °F 26% 29.83 in 10.0 mi West 6.9 mph - N/A   Clear